Location: Ladrillo (historical)
(32.8195°N, 117.2231°W)
Time: 03:15:12
(UTC+00:00)

Nadezhda 3 Rocket - Pass Details

Date: 26 May 2022
Orbit: 956 x 1000 km, 82.9° (Epoch: 04 July)

Event Time Altitude Azimuth Distance (km) Brightness Sun altitude
Rises 12:09:30 0° 197° (SSW) 3,699 6.6 -7.1°
Reaches altitude 10° 12:12:05 10° 202° (SSW) 2,750 5.9 -6.7°
Maximum altitude 12:18:14 54° 278° (W) 1,187 4.2 -5.6°
Drops below altitude 10° 12:24:22 10° 356° (N) 2,737 6.7 -4.4°
Sets 12:26:57 0° 1° (N) 3,682 7.5 -4.0°
